Time,TemperatureF,DewpointF,PressureIn,WindDirection,WindDirectionDegrees,WindSpeedMPH,WindSpeedGustMPH,Humidity,HourlyPrecipIn,Conditions,Clouds,dailyrainin,SoftwareType,DateUTC
2013-03-05 00:00:00,32.6,22.5,29.70,NNW,335,11.0,11.0,66,0.00,,,0.00,Wunderground v.1.15,2013-03-05 05:00:00,
2013-03-05 00:01:00,32.7,22.2,29.70,NNW,343,16.0,16.0,65,0.00,,,0.00,Wunderground v.1.15,2013-03-05 05:01:00,
2013-03-05 00:06:00,32.7,22.6,29.70,NNW,338,6.0,16.0,66,0.00,,,0.00,Wunderground v.1.15,2013-03-05 05:06:00,
2013-03-05 00:11:00,32.8,22.7,29.71,NW,326,5.0,11.0,66,0.00,,,0.00,Wunderground v.1.15,2013-03-05 05:11:00,
2013-03-05 00:16:00,32.9,22.4,29.71,NNW,327,9.0,11.0,65,0.00,,,0.00,Wunderground v.1.15,2013-03-05 05:16:00,
2013-03-05 00:22:00,32.9,22.4,29.71,NW,324,13.0,13.0,65,0.00,,,0.00,Wunderground v.1.15,2013-03-05 05:22:00,
2013-03-05 00:27:00,32.8,22.3,29.71,NNW,327,17.0,17.0,65,0.00,,,0.00,Wunderground v.1.15,2013-03-05 05:27:00,
2013-03-05 00:32:00,32.8,22.3,29.72,NNW,340,7.0,13.0,65,0.00,,,0.00,Wunderground v.1.15,2013-03-05 05:32:00,
2013-03-05 00:37:00,32.8,22.3,29.72,NW,323,9.0,13.0,65,0.00,,,0.00,Wunderground v.1.15,2013-03-05 05:37:00,
2013-03-05 00:42:00,32.8,22.3,29.72,NW,326,13.0,13.0,65,0.00,,,0.00,Wunderground v.1.15,2013-03-05 05:42:00,
2013-03-05 00:47:00,32.8,22.3,29.72,NNW,331,10.0,13.0,65,0.00,,,0.00,Wunderground v.1.15,2013-03-05 05:47:00,
2013-03-05 00:52:00,32.7,22.2,29.72,NW,316,10.0,10.0,65,0.00,,,0.00,Wunderground v.1.15,2013-03-05 05:52:00,
2013-03-05 00:57:00,32.7,22.2,29.72,North,350,14.0,14.0,65,0.00,,,0.00,Wunderground v.1.15,2013-03-05 05:57:00,
2013-03-05 01:02:00,32.5,22.0,29.72,NW,309,8.0,14.0,65,0.00,,,0.00,Wunderground v.1.15,2013-03-05 06:02:00,
2013-03-05 01:08:00,32.5,22.0,29.72,WNW,284,10.0,14.0,65,0.00,,,0.00,Wunderground v.1.15,2013-03-05 06:08:00,
2013-03-05 01:13:00,32.4,21.9,29.73,North,5,9.0,10.0,65,0.00,,,0.00,Wunderground v.1.15,2013-03-05 06:13:00,
2013-03-05 01:18:00,32.4,21.9,29.72,WNW,294,9.0,10.0,65,0.00,,,0.00,Wunderground v.1.15,2013-03-05 06:18:00,
2013-03-05 01:23:00,32.3,21.8,29.73,WNW,300,8.0,21.0,65,0.00,,,0.00,Wunderground v.1.15,2013-03-05 06:23:00,
2013-03-05 01:28:00,32.3,21.8,29.73,NNW,340,11.0,21.0,65,0.00,,,0.00,Wunderground v.1.15,2013-03-05 06:28:00,
2013-03-05 01:33:00,32.3,21.8,29.73,NW,309,9.0,12.0,65,0.00,,,0.00,Wunderground v.1.15,2013-03-05 06:33:00,
2013-03-05 01:38:00,32.3,21.8,29.73,NNW,348,10.0,12.0,65,0.00,,,0.00,Wunderground v.1.15,2013-03-05 06:38:00,
2013-03-05 01:43:00,32.3,21.8,29.73,NW,311,11.0,15.0,65,0.00,,,0.00,Wunderground v.1.15,2013-03-05 06:43:00,
2013-03-05 01:48:00,32.3,21.8,29.73,NW,321,8.0,15.0,65,0.00,,,0.00,Wunderground v.1.15,2013-03-05 06:48:00,
2013-03-05 01:53:00,32.3,21.8,29.73,West,271,9.0,14.0,65,0.00,,,0.00,Wunderground v.1.15,2013-03-05 06:53:00,
2013-03-05 01:58:00,32.3,21.8,29.73,North,355,11.0,14.0,65,0.00,,,0.00,Wunderground v.1.15,2013-03-05 06:58:00,
2013-03-05 02:03:00,32.3,21.8,29.74,NW,304,6.0,13.0,65,0.00,,,0.00,Wunderground v.1.15,2013-03-05 07:03:00,
2013-03-05 02:08:00,32.3,21.8,29.74,NW,305,8.0,15.0,65,0.00,,,0.00,Wunderground v.1.15,2013-03-05 07:08:00,
2013-03-05 02:13:00,32.3,21.8,29.74,WNW,294,9.0,19.0,65,0.00,,,0.00,Wunderground v.1.15,2013-03-05 07:13:00,
2013-03-05 02:18:00,32.3,21.8,29.74,NNW,331,8.0,19.0,65,0.00,,,0.00,Wunderground v.1.15,2013-03-05 07:18:00,
2013-03-05 02:23:00,32.3,21.8,29.74,WNW,295,5.0,19.0,65,0.00,,,0.00,Wunderground v.1.15,2013-03-05 07:23:00,
2013-03-05 02:28:00,32.3,21.8,29.75,WNW,295,13.0,19.0,65,0.00,,,0.00,Wunderground v.1.15,2013-03-05 07:28:00,
2013-03-05 02:33:00,32.3,21.8,29.74,WNW,292,15.0,15.0,65,0.00,,,0.00,Wunderground v.1.15,2013-03-05 07:33:00,
2013-03-05 02:38:00,32.3,21.8,29.75,North,351,6.0,21.0,65,0.00,,,0.00,Wunderground v.1.15,2013-03-05 07:38:00,
2013-03-05 02:43:00,32.3,21.8,29.75,NW,322,8.0,16.0,65,0.00,,,0.00,Wunderground v.1.15,2013-03-05 07:43:00,
2013-03-05 02:48:00,32.3,21.8,29.75,NNW,334,8.0,16.0,65,0.00,,,0.00,Wunderground v.1.15,2013-03-05 07:48:00,
2013-03-05 02:53:00,32.3,21.8,29.75,NNW,337,11.0,17.0,65,0.00,,,0.00,Wunderground v.1.15,2013-03-05 07:53:00,
2013-03-05 02:58:00,32.3,21.8,29.75,NNW,339,5.0,18.0,65,0.00,,,0.00,Wunderground v.1.15,2013-03-05 07:58:00,
2013-03-05 03:03:00,32.3,21.5,29.75,North,355,13.0,18.0,64,0.00,,,0.00,Wunderground v.1.15,2013-03-05 08:03:00,
2013-03-05 03:08:00,32.2,21.7,29.75,NW,304,9.0,20.0,65,0.00,,,0.00,Wunderground v.1.15,2013-03-05 08:08:00,
2013-03-05 03:13:00,32.0,21.6,29.75,NNW,341,9.0,17.0,65,0.00,,,0.00,Wunderground v.1.15,2013-03-05 08:13:00,
2013-03-05 03:18:00,31.9,21.5,29.76,NNW,328,6.0,17.0,65,0.00,,,0.00,Wunderground v.1.15,2013-03-05 08:18:00,
2013-03-05 03:23:00,31.8,21.4,29.76,NW,325,11.0,15.0,65,0.00,,,0.00,Wunderground v.1.15,2013-03-05 08:23:00,
2013-03-05 03:28:00,31.7,21.3,29.76,NNW,346,6.0,15.0,65,0.00,,,0.00,Wunderground v.1.15,2013-03-05 08:28:00,
2013-03-05 03:33:00,31.7,21.3,29.76,WNW,301,7.0,15.0,65,0.00,,,0.00,Wunderground v.1.15,2013-03-05 08:33:00,
2013-03-05 03:38:00,31.6,21.2,29.76,NW,310,12.0,20.0,65,0.00,,,0.00,Wunderground v.1.15,2013-03-05 08:38:00,
2013-03-05 03:43:00,31.5,21.4,29.76,NNW,331,14.0,15.0,66,0.00,,,0.00,Wunderground v.1.15,2013-03-05 08:43:00,
2013-03-05 03:49:00,31.4,21.3,29.77,NW,325,10.0,19.0,66,0.00,,,0.00,Wunderground v.1.15,2013-03-05 08:49:00,
2013-03-05 03:54:00,31.4,21.3,29.77,NNW,332,4.0,21.0,66,0.00,,,0.00,Wunderground v.1.15,2013-03-05 08:54:00,
2013-03-05 03:59:00,31.3,21.3,29.77,NW,307,8.0,21.0,66,0.00,,,0.00,Wunderground v.1.15,2013-03-05 08:59:00,
2013-03-05 04:04:00,31.2,21.2,29.78,NNW,330,6.0,18.0,66,0.00,,,0.00,Wunderground v.1.15,2013-03-05 09:04:00,
2013-03-05 04:09:00,31.1,21.1,29.78,NW,326,13.0,18.0,66,0.00,,,0.00,Wunderground v.1.15,2013-03-05 09:09:00,
2013-03-05 04:14:00,31.1,21.1,29.78,NW,321,9.0,13.0,66,0.00,,,0.00,Wunderground v.1.15,2013-03-05 09:14:00,
2013-03-05 04:19:00,31.1,21.4,29.78,North,350,7.0,14.0,67,0.00,,,0.00,Wunderground v.1.15,2013-03-05 09:19:00,
2013-03-05 04:24:00,31.1,21.4,29.78,WNW,300,10.0,13.0,67,0.00,,,0.00,Wunderground v.1.15,2013-03-05 09:24:00,
2013-03-05 04:29:00,31.1,21.4,29.79,NNW,333,5.0,16.0,67,0.00,,,0.00,Wunderground v.1.15,2013-03-05 09:29:00,
2013-03-05 04:34:00,31.1,21.4,29.79,NW,317,6.0,17.0,67,0.00,,,0.00,Wunderground v.1.15,2013-03-05 09:34:00,
2013-03-05 04:39:00,31.1,21.4,29.79,NNW,331,4.0,17.0,67,0.00,,,0.00,Wunderground v.1.15,2013-03-05 09:39:00,
2013-03-05 04:44:00,31.2,21.5,29.79,NNW,346,12.0,17.0,67,0.00,,,0.00,Wunderground v.1.15,2013-03-05 09:44:00,
2013-03-05 04:49:00,31.3,21.6,29.80,NW,323,11.0,17.0,67,0.00,,,0.00,Wunderground v.1.15,2013-03-05 09:49:00,
2013-03-05 04:54:00,31.3,21.6,29.80,NW,323,9.0,12.0,67,0.00,,,0.00,Wunderground v.1.15,2013-03-05 09:54:00,
2013-03-05 04:59:00,31.4,21.7,29.80,North,355,6.0,14.0,67,0.00,,,0.00,Wunderground v.1.15,2013-03-05 09:59:00,
2013-03-05 05:04:00,31.5,21.8,29.80,North,350,8.0,14.0,67,0.00,,,0.00,Wunderground v.1.15,2013-03-05 10:04:00,
2013-03-05 05:09:00,31.7,22.0,29.81,NW,319,9.0,15.0,67,0.00,,,0.00,Wunderground v.1.15,2013-03-05 10:09:00,
2013-03-05 05:14:00,31.7,21.6,29.81,West,263,9.0,12.0,66,0.00,,,0.00,Wunderground v.1.15,2013-03-05 10:14:00,
2013-03-05 05:19:00,31.8,21.7,29.81,NNW,348,4.0,13.0,66,0.00,,,0.00,Wunderground v.1.15,2013-03-05 10:19:00,
2013-03-05 05:24:00,31.9,21.8,29.81,NNW,333,8.0,12.0,66,0.00,,,0.00,Wunderground v.1.15,2013-03-05 10:24:00,
2013-03-05 05:29:00,31.9,21.8,29.81,NNW,330,5.0,15.0,66,0.00,,,0.00,Wunderground v.1.15,2013-03-05 10:29:00,
2013-03-05 05:34:00,32.0,21.9,29.82,NNW,340,6.0,13.0,66,0.00,,,0.00,Wunderground v.1.15,2013-03-05 10:34:00,
2013-03-05 05:39:00,32.0,21.9,29.82,NNW,336,7.0,16.0,66,0.00,,,0.00,Wunderground v.1.15,2013-03-05 10:39:00,
2013-03-05 05:44:00,32.0,21.9,29.82,NNW,327,6.0,13.0,66,0.00,,,0.00,Wunderground v.1.15,2013-03-05 10:44:00,
2013-03-05 05:49:00,32.0,21.9,29.82,NNW,343,9.0,13.0,66,0.00,,,0.00,Wunderground v.1.15,2013-03-05 10:49:00,
2013-03-05 05:54:00,32.0,21.9,29.83,NW,306,9.0,12.0,66,0.00,,,0.00,Wunderground v.1.15,2013-03-05 10:54:00,
2013-03-05 05:59:00,32.1,22.0,29.83,West,265,10.0,18.0,66,0.00,,,0.00,Wunderground v.1.15,2013-03-05 10:59:00,
2013-03-05 06:04:00,32.1,22.0,29.83,NW,317,7.0,14.0,66,0.00,,,0.00,Wunderground v.1.15,2013-03-05 11:04:00,
2013-03-05 06:09:00,32.1,22.0,29.83,WNW,301,5.0,14.0,66,0.00,,,0.00,Wunderground v.1.15,2013-03-05 11:09:00,
2013-03-05 06:14:00,32.1,22.0,29.83,NW,325,2.0,13.0,66,0.00,,,0.00,Wunderground v.1.15,2013-03-05 11:14:00,
2013-03-05 06:19:00,32.1,22.0,29.83,NNW,327,3.0,13.0,66,0.00,,,0.00,Wunderground v.1.15,2013-03-05 11:19:00,
2013-03-05 06:24:00,32.1,22.0,29.84,NW,326,6.0,10.0,66,0.00,,,0.00,Wunderground v.1.15,2013-03-05 11:24:00,
2013-03-05 06:29:00,32.1,22.0,29.84,NNW,336,8.0,16.0,66,0.00,,,0.00,Wunderground v.1.15,2013-03-05 11:29:00,
2013-03-05 06:35:00,32.2,22.1,29.84,NNW,334,8.0,12.0,66,0.00,,,0.00,Wunderground v.1.15,2013-03-05 11:35:00,
2013-03-05 06:40:00,32.2,22.1,29.84,NW,313,5.0,8.0,66,0.00,,,0.00,Wunderground v.1.15,2013-03-05 11:40:00,
2013-03-05 06:45:00,32.3,22.2,29.84,NNW,340,9.0,15.0,66,0.00,,,0.00,Wunderground v.1.15,2013-03-05 11:45:00,
2013-03-05 06:50:00,32.3,22.2,29.84,WNW,292,8.0,8.0,66,0.00,,,0.00,Wunderground v.1.15,2013-03-05 11:50:00,
2013-03-05 06:55:00,32.3,22.2,29.84,NNW,348,6.0,12.0,66,0.00,,,0.00,Wunderground v.1.15,2013-03-05 11:55:00,
2013-03-05 07:00:00,32.3,22.2,29.85,NNW,330,13.0,13.0,66,0.00,,,0.00,Wunderground v.1.15,2013-03-05 12:00:00,
2013-03-05 07:05:00,32.3,22.2,29.85,NW,323,7.0,18.0,66,0.00,,,0.00,Wunderground v.1.15,2013-03-05 12:05:00,
2013-03-05 07:10:00,32.3,22.2,29.85,NNW,333,7.0,9.0,66,0.00,,,0.00,Wunderground v.1.15,2013-03-05 12:10:00,
2013-03-05 07:15:00,32.2,22.1,29.86,WNW,284,5.0,13.0,66,0.00,,,0.00,Wunderground v.1.15,2013-03-05 12:15:00,
2013-03-05 07:20:00,32.4,22.3,29.86,NNW,333,6.0,8.0,66,0.00,,,0.00,Wunderground v.1.15,2013-03-05 12:20:00,
2013-03-05 07:25:00,32.6,22.5,29.86,NW,304,6.0,13.0,66,0.00,,,0.00,Wunderground v.1.15,2013-03-05 12:25:00,
2013-03-05 07:30:00,32.7,22.6,29.86,North,360,6.0,6.0,66,0.00,,,0.00,Wunderground v.1.15,2013-03-05 12:30:00,
2013-03-05 07:35:00,32.9,22.4,29.86,NNW,335,9.0,14.0,65,0.00,,,0.00,Wunderground v.1.15,2013-03-05 12:35:00,
2013-03-05 07:40:00,33.3,22.8,29.87,NW,320,8.0,8.0,65,0.00,,,0.00,Wunderground v.1.15,2013-03-05 12:40:00,
2013-03-05 07:45:00,33.5,23.0,29.87,NW,311,3.0,11.0,65,0.00,,,0.00,Wunderground v.1.15,2013-03-05 12:45:00,
2013-03-05 07:50:00,33.7,23.2,29.87,NW,324,2.0,6.0,65,0.00,,,0.00,Wunderground v.1.15,2013-03-05 12:50:00,
2013-03-05 07:55:00,33.8,22.9,29.87,North,355,3.0,16.0,64,0.00,,,0.00,Wunderground v.1.15,2013-03-05 12:55:00,
2013-03-05 08:00:00,33.9,23.0,29.87,NNW,334,4.0,6.0,64,0.00,,,0.00,Wunderground v.1.15,2013-03-05 13:00:00,
2013-03-05 08:05:00,34.0,23.1,29.88,NNW,333,14.0,15.0,64,0.00,,,0.00,Wunderground v.1.15,2013-03-05 13:05:00,
2013-03-05 08:10:00,34.2,23.3,29.88,NNW,327,8.0,11.0,64,0.00,,,0.00,Wunderground v.1.15,2013-03-05 13:10:00,
2013-03-05 08:15:00,34.3,23.4,29.88,NW,326,14.0,15.0,64,0.00,,,0.00,Wunderground v.1.15,2013-03-05 13:15:00,
2013-03-05 08:20:00,34.4,23.1,29.88,NNW,336,5.0,9.0,63,0.00,,,0.00,Wunderground v.1.15,2013-03-05 13:20:00,
2013-03-05 08:25:00,34.4,23.5,29.88,NW,315,8.0,12.0,64,0.00,,,0.00,Wunderground v.1.15,2013-03-05 13:25:00,
2013-03-05 08:30:00,34.7,23.8,29.88,WNW,297,7.0,7.0,64,0.00,,,0.00,Wunderground v.1.15,2013-03-05 13:30:00,
2013-03-05 08:35:00,35.0,23.7,29.89,NW,306,9.0,15.0,63,0.00,,,0.00,Wunderground v.1.15,2013-03-05 13:35:00,
2013-03-05 08:40:00,35.2,23.9,29.89,NNW,341,8.0,9.0,63,0.00,,,0.00,Wunderground v.1.15,2013-03-05 13:40:00,
2013-03-05 08:45:00,35.4,24.0,29.89,NNW,338,9.0,13.0,63,0.00,,,0.00,Wunderground v.1.15,2013-03-05 13:45:00,
2013-03-05 08:50:00,35.6,24.2,29.89,NNW,344,8.0,9.0,63,0.00,,,0.00,Wunderground v.1.15,2013-03-05 13:50:00,
2013-03-05 08:55:00,35.8,24.4,29.89,NW,320,8.0,9.0,63,0.00,,,0.00,Wunderground v.1.15,2013-03-05 13:55:00,
2013-03-05 09:00:00,36.0,24.2,29.89,NNW,333,11.0,15.0,62,0.00,,,0.00,Wunderground v.1.15,2013-03-05 14:00:00,
2013-03-05 09:05:00,36.4,24.6,29.90,NNW,346,11.0,15.0,62,0.00,,,0.00,Wunderground v.1.15,2013-03-05 14:05:00,
2013-03-05 09:10:00,36.6,24.4,29.89,NNW,331,9.0,13.0,61,0.00,,,0.00,Wunderground v.1.15,2013-03-05 14:10:00,
2013-03-05 09:15:00,36.7,24.9,29.89,NNW,333,7.0,13.0,62,0.00,,,0.00,Wunderground v.1.15,2013-03-05 14:15:00,
2013-03-05 09:20:00,36.8,24.6,29.89,NNW,333,4.0,7.0,61,0.00,,,0.00,Wunderground v.1.15,2013-03-05 14:20:00,
2013-03-05 09:25:00,36.9,24.7,29.90,WNW,296,6.0,11.0,61,0.00,,,0.00,Wunderground v.1.15,2013-03-05 14:25:00,
2013-03-05 09:30:00,37.0,25.2,29.90,North,5,8.0,9.0,62,0.00,,,0.00,Wunderground v.1.15,2013-03-05 14:30:00,
2013-03-05 09:35:00,37.2,25.0,29.90,NW,323,5.0,13.0,61,0.00,,,0.00,Wunderground v.1.15,2013-03-05 14:35:00,
2013-03-05 09:40:00,37.3,25.1,29.90,North,360,7.0,8.0,61,0.00,,,0.00,Wunderground v.1.15,2013-03-05 14:40:00,
2013-03-05 09:45:00,37.6,25.7,29.90,NW,309,6.0,10.0,62,0.00,,,0.00,Wunderground v.1.15,2013-03-05 14:45:00,
2013-03-05 09:50:00,37.9,25.6,29.90,NNW,341,11.0,11.0,61,0.00,,,0.00,Wunderground v.1.15,2013-03-05 14:50:00,
2013-03-05 09:55:00,38.1,25.8,29.90,NNW,347,3.0,16.0,61,0.00,,,0.00,Wunderground v.1.15,2013-03-05 14:55:00,
2013-03-05 10:00:00,38.3,26.0,29.90,NNW,338,10.0,11.0,61,0.00,,,0.00,Wunderground v.1.15,2013-03-05 15:00:00,
2013-03-05 10:05:00,38.5,26.2,29.90,North,360,7.0,12.0,61,0.00,,,0.00,Wunderground v.1.15,2013-03-05 15:05:00,
2013-03-05 10:10:00,38.8,26.5,29.90,NNW,328,9.0,11.0,61,0.00,,,0.00,Wunderground v.1.15,2013-03-05 15:10:00,
2013-03-05 10:15:00,39.0,26.7,29.90,North,360,8.0,14.0,61,0.00,,,0.00,Wunderground v.1.15,2013-03-05 15:15:00,
2013-03-05 10:20:00,39.3,27.0,29.90,NNW,340,5.0,7.0,61,0.00,,,0.00,Wunderground v.1.15,2013-03-05 15:20:00,
2013-03-05 10:25:00,39.4,26.7,29.90,NNW,345,4.0,14.0,60,0.00,,,0.00,Wunderground v.1.15,2013-03-05 15:25:00,
2013-03-05 10:30:00,39.6,26.8,29.90,North,360,12.0,13.0,60,0.00,,,0.00,Wunderground v.1.15,2013-03-05 15:30:00,
2013-03-05 10:35:00,39.7,26.9,29.90,NNW,343,10.0,13.0,60,0.00,,,0.00,Wunderground v.1.15,2013-03-05 15:35:00,
2013-03-05 10:40:00,39.8,27.0,29.90,NNW,348,6.0,7.0,60,0.00,,,0.00,Wunderground v.1.15,2013-03-05 15:40:00,
2013-03-05 10:45:00,40.0,27.2,29.90,NNW,327,4.0,9.0,60,0.00,,,0.00,Wunderground v.1.15,2013-03-05 15:45:00,
2013-03-05 10:50:00,40.1,27.3,29.90,North,355,7.0,9.0,60,0.00,,,0.00,Wunderground v.1.15,2013-03-05 15:50:00,
2013-03-05 10:55:00,40.1,27.3,29.90,NNW,343,12.0,16.0,60,0.00,,,0.00,Wunderground v.1.15,2013-03-05 15:55:00,
2013-03-05 11:00:00,40.1,26.9,29.90,NNW,340,7.0,8.0,59,0.00,,,0.00,Wunderground v.1.15,2013-03-05 16:00:00,
2013-03-05 11:05:00,40.3,27.5,29.91,North,360,7.0,10.0,60,0.00,,,0.00,Wunderground v.1.15,2013-03-05 16:05:00,
2013-03-05 11:10:00,40.4,27.2,29.91,NW,320,5.0,7.0,59,0.00,,,0.00,Wunderground v.1.15,2013-03-05 16:10:00,
2013-03-05 11:15:00,40.6,27.4,29.91,NNW,336,5.0,13.0,59,0.00,,,0.00,Wunderground v.1.15,2013-03-05 16:15:00,
2013-03-05 11:20:00,40.6,27.4,29.91,NNW,341,3.0,8.0,59,0.00,,,0.00,Wunderground v.1.15,2013-03-05 16:20:00,
2013-03-05 11:25:00,40.7,27.5,29.91,NNW,334,7.0,13.0,59,0.00,,,0.00,Wunderground v.1.15,2013-03-05 16:25:00,
2013-03-05 11:30:00,40.8,27.6,29.91,NNE,14,5.0,7.0,59,0.00,,,0.00,Wunderground v.1.15,2013-03-05 16:30:00,
2013-03-05 11:35:00,40.9,27.7,29.91,North,5,5.0,9.0,59,0.00,,,0.00,Wunderground v.1.15,2013-03-05 16:35:00,
2013-03-05 11:40:00,41.0,27.8,29.91,NNW,339,4.0,5.0,59,0.00,,,0.00,Wunderground v.1.15,2013-03-05 16:40:00,
2013-03-05 11:45:00,41.2,27.9,29.91,NE,37,2.0,8.0,59,0.00,,,0.00,Wunderground v.1.15,2013-03-05 16:45:00,
2013-03-05 11:50:00,41.4,27.7,29.91,NNW,348,5.0,8.0,58,0.00,,,0.00,Wunderground v.1.15,2013-03-05 16:50:00,
2013-03-05 11:55:00,41.6,28.3,29.91,North,355,8.0,11.0,59,0.00,,,0.00,Wunderground v.1.15,2013-03-05 16:55:00,
2013-03-05 12:00:00,41.9,28.2,29.91,NNE,22,7.0,9.0,58,0.00,,,0.00,Wunderground v.1.15,2013-03-05 17:00:00,
2013-03-05 12:06:00,42.2,28.5,29.91,NNE,30,6.0,9.0,58,0.00,,,0.00,Wunderground v.1.15,2013-03-05 17:06:00,
2013-03-05 12:11:00,42.5,28.3,29.91,ENE,57,0.0,5.0,57,0.00,,,0.00,Wunderground v.1.15,2013-03-05 17:11:00,
2013-03-05 12:16:00,42.8,28.6,29.91,NW,319,6.0,10.0,57,0.00,,,0.00,Wunderground v.1.15,2013-03-05 17:16:00,
2013-03-05 12:21:00,42.9,28.3,29.91,NNE,13,3.0,4.0,56,0.00,,,0.00,Wunderground v.1.15,2013-03-05 17:21:00,
2013-03-05 12:26:00,42.9,28.7,29.91,WNW,302,3.0,4.0,57,0.00,,,0.00,Wunderground v.1.15,2013-03-05 17:26:00,
2013-03-05 12:31:00,42.8,28.2,29.91,NNW,338,3.0,4.0,56,0.00,,,0.00,Wunderground v.1.15,2013-03-05 17:31:00,
2013-03-05 12:36:00,42.7,28.5,29.91,WNW,295,4.0,7.0,57,0.00,,,0.00,Wunderground v.1.15,2013-03-05 17:36:00,
2013-03-05 12:41:00,42.8,28.6,29.91,North,9,5.0,7.0,57,0.00,,,0.00,Wunderground v.1.15,2013-03-05 17:41:00,
2013-03-05 12:46:00,43.0,28.8,29.91,ENE,67,2.0,7.0,57,0.00,,,0.00,Wunderground v.1.15,2013-03-05 17:46:00,
2013-03-05 12:51:00,43.2,29.0,29.91,NNW,338,3.0,6.0,57,0.00,,,0.00,Wunderground v.1.15,2013-03-05 17:51:00,
2013-03-05 12:56:00,43.3,28.6,29.91,NNE,23,6.0,8.0,56,0.00,,,0.00,Wunderground v.1.15,2013-03-05 17:56:00,
2013-03-05 13:01:00,43.5,28.8,29.91,NNW,327,3.0,5.0,56,0.00,,,0.00,Wunderground v.1.15,2013-03-05 18:01:00,
2013-03-05 13:06:00,43.5,28.4,29.92,NNE,26,2.0,8.0,55,0.00,,,0.00,Wunderground v.1.15,2013-03-05 18:06:00,
2013-03-05 13:11:00,43.4,28.3,29.91,ENE,73,0.0,4.0,55,0.00,,,0.00,Wunderground v.1.15,2013-03-05 18:11:00,
2013-03-05 13:16:00,43.5,28.4,29.92,ENE,60,0.0,4.0,55,0.00,,,0.00,Wunderground v.1.15,2013-03-05 18:16:00,
2013-03-05 13:21:00,43.6,28.5,29.91,East,96,5.0,5.0,55,0.00,,,0.00,Wunderground v.1.15,2013-03-05 18:21:00,
2013-03-05 13:26:00,43.9,29.2,29.92,NE,47,5.0,9.0,56,0.00,,,0.00,Wunderground v.1.15,2013-03-05 18:26:00,
2013-03-05 13:31:00,44.1,28.5,29.92,ENE,76,2.0,5.0,54,0.00,,,0.00,Wunderground v.1.15,2013-03-05 18:31:00,
2013-03-05 13:36:00,44.2,28.6,29.92,North,10,10.0,11.0,54,0.00,,,0.00,Wunderground v.1.15,2013-03-05 18:36:00,
2013-03-05 13:41:00,44.1,28.5,29.92,SE,139,2.0,8.0,54,0.00,,,0.00,Wunderground v.1.15,2013-03-05 18:41:00,
2013-03-05 13:46:00,44.0,28.9,29.92,NNE,30,5.0,8.0,55,0.00,,,0.00,Wunderground v.1.15,2013-03-05 18:46:00,
2013-03-05 13:51:00,44.0,28.9,29.92,NE,43,3.0,6.0,55,0.00,,,0.00,Wunderground v.1.15,2013-03-05 18:51:00,
2013-03-05 13:56:00,44.1,28.9,29.92,ENE,61,7.0,11.0,55,0.00,,,0.00,Wunderground v.1.15,2013-03-05 18:56:00,
2013-03-05 14:01:00,44.2,28.6,29.92,NE,55,1.0,6.0,54,0.00,,,0.00,Wunderground v.1.15,2013-03-05 19:01:00,
2013-03-05 14:06:00,44.3,28.7,29.92,NNW,342,1.0,8.0,54,0.00,,,0.00,Wunderground v.1.15,2013-03-05 19:06:00,
2013-03-05 14:11:00,44.6,29.0,29.92,East,98,2.0,7.0,54,0.00,,,0.00,Wunderground v.1.15,2013-03-05 19:11:00,
2013-03-05 14:16:00,44.9,29.2,29.92,North,9,3.0,7.0,54,0.00,,,0.00,Wunderground v.1.15,2013-03-05 19:16:00,
2013-03-05 14:21:00,45.0,29.3,29.93,ENE,57,5.0,7.0,54,0.00,,,0.00,Wunderground v.1.15,2013-03-05 19:21:00,
2013-03-05 14:26:00,45.0,30.2,29.93,SE,138,5.0,9.0,56,0.00,,,0.00,Wunderground v.1.15,2013-03-05 19:26:00,
2013-03-05 14:31:00,45.2,30.9,29.93,SE,132,7.0,8.0,57,0.00,,,0.00,Wunderground v.1.15,2013-03-05 19:31:00,
2013-03-05 14:36:00,45.3,31.8,29.93,SSE,148,7.0,10.0,59,0.00,,,0.00,Wunderground v.1.15,2013-03-05 19:36:00,
2013-03-05 14:41:00,45.3,31.8,29.93,East,101,5.0,9.0,59,0.00,,,0.00,Wunderground v.1.15,2013-03-05 19:41:00,
2013-03-05 14:46:00,45.3,31.8,29.94,ESE,105,5.0,9.0,59,0.00,,,0.00,Wunderground v.1.15,2013-03-05 19:46:00,
2013-03-05 14:51:00,45.4,31.9,29.94,ESE,105,4.0,7.0,59,0.00,,,0.00,Wunderground v.1.15,2013-03-05 19:51:00,
2013-03-05 14:56:00,45.4,32.3,29.93,ENE,72,5.0,9.0,60,0.00,,,0.00,Wunderground v.1.15,2013-03-05 19:56:00,
2013-03-05 15:01:00,45.3,31.4,29.94,ENE,76,3.0,11.0,58,0.00,,,0.00,Wunderground v.1.15,2013-03-05 20:01:00,
2013-03-05 15:06:00,45.0,31.1,29.94,ENE,65,7.0,11.0,58,0.00,,,0.00,Wunderground v.1.15,2013-03-05 20:06:00,
2013-03-05 15:11:00,45.0,31.5,29.94,ENE,60,5.0,9.0,59,0.00,,,0.00,Wunderground v.1.15,2013-03-05 20:11:00,
2013-03-05 15:17:00,44.7,31.2,29.94,ENE,68,5.0,11.0,59,0.00,,,0.00,Wunderground v.1.15,2013-03-05 20:17:00,
2013-03-05 15:22:00,44.5,31.1,29.94,North,10,5.0,7.0,59,0.00,,,0.00,Wunderground v.1.15,2013-03-05 20:22:00,
2013-03-05 15:27:00,44.3,31.3,29.95,ENE,57,7.0,10.0,60,0.00,,,0.00,Wunderground v.1.15,2013-03-05 20:27:00,
2013-03-05 15:32:00,44.2,31.2,29.95,NE,41,5.0,11.0,60,0.00,,,0.00,Wunderground v.1.15,2013-03-05 20:32:00,
2013-03-05 15:37:00,44.1,31.5,29.95,East,83,6.0,11.0,61,0.00,,,0.00,Wunderground v.1.15,2013-03-05 20:37:00,
2013-03-05 15:42:00,43.9,31.3,29.95,NE,56,4.0,7.0,61,0.00,,,0.00,Wunderground v.1.15,2013-03-05 20:42:00,
2013-03-05 15:47:00,43.8,30.8,29.96,NNE,28,5.0,7.0,60,0.00,,,0.00,Wunderground v.1.15,2013-03-05 20:47:00,
2013-03-05 15:52:00,43.7,30.7,29.96,East,82,5.0,8.0,60,0.00,,,0.00,Wunderground v.1.15,2013-03-05 20:52:00,
2013-03-05 15:57:00,43.6,30.6,29.96,NE,42,2.0,8.0,60,0.00,,,0.00,Wunderground v.1.15,2013-03-05 20:57:00,
2013-03-05 16:02:00,43.6,30.6,29.96,ENE,59,3.0,7.0,60,0.00,,,0.00,Wunderground v.1.15,2013-03-05 21:02:00,
2013-03-05 16:07:00,43.5,30.5,29.96,ENE,72,3.0,7.0,60,0.00,,,0.00,Wunderground v.1.15,2013-03-05 21:07:00,
2013-03-05 16:12:00,43.5,30.9,29.96,ENE,59,2.0,4.0,61,0.00,,,0.00,Wunderground v.1.15,2013-03-05 21:12:00,
2013-03-05 16:17:00,43.4,30.8,29.97,East,79,5.0,5.0,61,0.00,,,0.00,Wunderground v.1.15,2013-03-05 21:17:00,
2013-03-05 16:22:00,43.5,31.3,29.97,ENE,57,2.0,6.0,62,0.00,,,0.00,Wunderground v.1.15,2013-03-05 21:22:00,
2013-03-05 16:27:00,43.5,31.3,29.97,NE,36,4.0,6.0,62,0.00,,,0.00,Wunderground v.1.15,2013-03-05 21:27:00,
2013-03-05 16:32:00,43.4,30.8,29.97,NNE,13,0.0,4.0,61,0.00,,,0.00,Wunderground v.1.15,2013-03-05 21:32:00,
2013-03-05 16:37:00,43.4,31.6,29.97,ENE,78,7.0,9.0,63,0.00,,,0.00,Wunderground v.1.15,2013-03-05 21:37:00,
2013-03-05 16:42:00,43.2,31.8,29.98,East,84,5.0,8.0,64,0.00,,,0.00,Wunderground v.1.15,2013-03-05 21:42:00,
2013-03-05 16:47:00,43.0,31.6,29.98,East,88,3.0,8.0,64,0.00,,,0.00,Wunderground v.1.15,2013-03-05 21:47:00,
2013-03-05 16:52:00,42.9,31.6,29.98,East,96,3.0,6.0,64,0.00,,,0.00,Wunderground v.1.15,2013-03-05 21:52:00,
2013-03-05 16:57:00,42.9,31.9,29.98,ENE,69,7.0,7.0,65,0.00,,,0.00,Wunderground v.1.15,2013-03-05 21:57:00,
2013-03-05 17:02:00,42.8,31.8,29.98,ENE,70,4.0,5.0,65,0.00,,,0.00,Wunderground v.1.15,2013-03-05 22:02:00,
2013-03-05 17:07:00,42.7,31.7,29.98,ENE,59,5.0,9.0,65,0.00,,,0.00,Wunderground v.1.15,2013-03-05 22:07:00,
2013-03-05 17:12:00,42.6,31.7,29.98,East,79,3.0,8.0,65,0.00,,,0.00,Wunderground v.1.15,2013-03-05 22:12:00,
2013-03-05 17:17:00,42.4,31.8,29.98,ENE,60,5.0,9.0,66,0.00,,,0.00,Wunderground v.1.15,2013-03-05 22:17:00,
2013-03-05 17:22:00,42.3,31.7,29.98,ENE,69,4.0,5.0,66,0.00,,,0.00,Wunderground v.1.15,2013-03-05 22:22:00,
2013-03-05 17:27:00,42.2,31.6,29.99,ENE,61,4.0,7.0,66,0.00,,,0.00,Wunderground v.1.15,2013-03-05 22:27:00,
2013-03-05 17:32:00,42.0,31.5,29.99,ENE,75,7.0,8.0,66,0.00,,,0.00,Wunderground v.1.15,2013-03-05 22:32:00,
2013-03-05 17:37:00,41.9,31.7,29.99,ENE,68,3.0,9.0,67,0.00,,,0.00,Wunderground v.1.15,2013-03-05 22:37:00,
2013-03-05 17:43:00,41.7,31.5,29.99,East,86,3.0,6.0,67,0.00,,,0.00,Wunderground v.1.15,2013-03-05 22:43:00,
2013-03-05 17:48:00,41.6,31.4,29.99,ENE,76,7.0,8.0,67,0.00,,,0.00,Wunderground v.1.15,2013-03-05 22:48:00,
2013-03-05 17:53:00,41.4,31.3,29.99,ENE,69,5.0,7.0,67,0.00,,,0.00,Wunderground v.1.15,2013-03-05 22:53:00,
2013-03-05 17:58:00,41.3,31.2,29.99,ENE,64,7.0,8.0,67,0.00,,,0.00,Wunderground v.1.15,2013-03-05 22:58:00,
2013-03-05 18:03:00,41.1,31.3,29.99,ENE,71,2.0,5.0,68,0.00,,,0.00,Wunderground v.1.15,2013-03-05 23:03:00,
2013-03-05 18:08:00,41.0,31.2,29.99,ENE,71,1.0,5.0,68,0.00,,,0.00,Wunderground v.1.15,2013-03-05 23:08:00,
2013-03-05 18:13:00,40.9,31.1,29.99,NE,44,1.0,5.0,68,0.00,,,0.00,Wunderground v.1.15,2013-03-05 23:13:00,
2013-03-05 18:18:00,40.7,31.0,29.99,ENE,58,1.0,5.0,68,0.00,,,0.00,Wunderground v.1.15,2013-03-05 23:18:00,
2013-03-05 18:23:00,40.6,30.9,30.00,East,84,3.0,6.0,68,0.00,,,0.00,Wunderground v.1.15,2013-03-05 23:23:00,
2013-03-05 18:28:00,40.4,31.0,30.00,ENE,76,2.0,6.0,69,0.00,,,0.00,Wunderground v.1.15,2013-03-05 23:28:00,
2013-03-05 18:33:00,40.3,30.9,30.00,ENE,65,2.0,4.0,69,0.00,,,0.00,Wunderground v.1.15,2013-03-05 23:33:00,
2013-03-05 18:38:00,40.1,30.7,30.00,ENE,63,2.0,4.0,69,0.00,,,0.00,Wunderground v.1.15,2013-03-05 23:38:00,
2013-03-05 18:43:00,39.9,30.5,30.00,ENE,65,1.0,3.0,69,0.00,,,0.00,Wunderground v.1.15,2013-03-05 23:43:00,
2013-03-05 18:48:00,39.7,30.7,30.00,NE,51,3.0,5.0,70,0.00,,,0.00,Wunderground v.1.15,2013-03-05 23:48:00,
2013-03-05 18:53:00,39.6,30.6,30.00,NE,46,2.0,4.0,70,0.00,,,0.00,Wunderground v.1.15,2013-03-05 23:53:00,
2013-03-05 18:58:00,39.4,30.8,30.00,NE,46,2.0,4.0,71,0.00,,,0.00,Wunderground v.1.15,2013-03-05 23:58:00,
2013-03-05 19:03:00,39.3,30.7,30.00,NE,41,2.0,4.0,71,0.00,,,0.00,Wunderground v.1.15,2013-03-06 00:03:00,
2013-03-05 19:08:00,39.2,30.6,30.00,NE,41,0.0,4.0,71,0.00,,,0.00,Wunderground v.1.15,2013-03-06 00:08:00,
2013-03-05 19:13:00,39.0,30.4,30.00,NE,42,0.0,2.0,71,0.00,,,0.00,Wunderground v.1.15,2013-03-06 00:13:00,
2013-03-05 19:18:00,38.9,30.3,30.01,NE,41,1.0,3.0,71,0.00,,,0.00,Wunderground v.1.15,2013-03-06 00:18:00,
2013-03-05 19:23:00,38.8,30.5,30.01,NE,41,1.0,4.0,72,0.00,,,0.00,Wunderground v.1.15,2013-03-06 00:23:00,
2013-03-05 19:28:00,38.7,30.4,30.01,NE,40,2.0,4.0,72,0.00,,,0.00,Wunderground v.1.15,2013-03-06 00:28:00,
2013-03-05 19:33:00,38.5,30.3,30.01,NE,40,1.0,2.0,72,0.00,,,0.00,Wunderground v.1.15,2013-03-06 00:33:00,
2013-03-05 19:38:00,38.4,29.8,30.02,NE,41,0.0,2.0,71,0.00,,,0.00,Wunderground v.1.15,2013-03-06 00:38:00,
2013-03-05 19:43:00,38.2,29.6,30.02,NE,40,1.0,1.0,71,0.00,,,0.00,Wunderground v.1.15,2013-03-06 00:43:00,
2013-03-05 19:48:00,38.0,29.4,30.02,NE,41,0.0,3.0,71,0.00,,,0.00,Wunderground v.1.15,2013-03-06 00:48:00,
2013-03-05 19:53:00,37.7,29.1,30.02,NE,41,0.0,1.0,71,0.00,,,0.00,Wunderground v.1.15,2013-03-06 00:53:00,
2013-03-05 19:58:00,37.5,28.9,30.02,NE,41,1.0,2.0,71,0.00,,,0.00,Wunderground v.1.15,2013-03-06 00:58:00,
2013-03-05 20:03:00,37.3,28.8,30.02,NE,40,2.0,2.0,71,0.00,,,0.00,Wunderground v.1.15,2013-03-06 01:03:00,
2013-03-05 20:08:00,37.0,28.8,30.01,NE,41,1.0,2.0,72,0.00,,,0.00,Wunderground v.1.15,2013-03-06 01:08:00,
2013-03-05 20:13:00,36.8,28.6,30.01,NE,40,0.0,1.0,72,0.00,,,0.00,Wunderground v.1.15,2013-03-06 01:13:00,
2013-03-05 20:18:00,36.6,28.4,30.01,NE,41,0.0,1.0,72,0.00,,,0.00,Wunderground v.1.15,2013-03-06 01:18:00,
2013-03-05 20:23:00,36.4,28.6,30.01,NE,41,0.0,0.0,73,0.00,,,0.00,Wunderground v.1.15,2013-03-06 01:23:00,
2013-03-05 20:28:00,36.2,28.4,30.01,NE,41,0.0,0.0,73,0.00,,,0.00,Wunderground v.1.15,2013-03-06 01:28:00,
2013-03-05 20:33:00,36.0,28.2,30.01,NE,41,0.0,0.0,73,0.00,,,0.00,Wunderground v.1.15,2013-03-06 01:33:00,
2013-03-05 20:38:00,35.8,28.3,30.01,NE,41,0.0,0.0,74,0.00,,,0.00,Wunderground v.1.15,2013-03-06 01:38:00,
2013-03-05 20:43:00,35.7,28.2,30.01,NE,41,0.0,0.0,74,0.00,,,0.00,Wunderground v.1.15,2013-03-06 01:43:00,
2013-03-05 20:48:00,35.6,28.1,30.01,NE,41,0.0,0.0,74,0.00,,,0.00,Wunderground v.1.15,2013-03-06 01:48:00,
2013-03-05 20:53:00,35.6,28.8,30.01,NE,40,0.0,0.0,76,0.00,,,0.00,Wunderground v.1.15,2013-03-06 01:53:00,
2013-03-05 20:58:00,35.6,28.8,30.01,NE,41,1.0,2.0,76,0.00,,,0.00,Wunderground v.1.15,2013-03-06 01:58:00,
2013-03-05 21:03:00,35.6,28.8,30.00,NE,40,0.0,0.0,76,0.00,,,0.00,Wunderground v.1.15,2013-03-06 02:03:00,
2013-03-05 21:08:00,35.7,28.9,30.00,NE,41,0.0,2.0,76,0.00,,,0.00,Wunderground v.1.15,2013-03-06 02:08:00,
2013-03-05 21:13:00,35.7,28.9,30.00,NE,40,0.0,3.0,76,0.00,,,0.00,Wunderground v.1.15,2013-03-06 02:13:00,
2013-03-05 21:18:00,35.8,29.0,30.00,NE,41,0.0,3.0,76,0.00,,,0.00,Wunderground v.1.15,2013-03-06 02:18:00,
2013-03-05 21:23:00,35.8,29.0,30.00,NE,41,0.0,3.0,76,0.00,,,0.00,Wunderground v.1.15,2013-03-06 02:23:00,
2013-03-05 21:28:00,35.9,29.4,30.00,NE,40,1.0,3.0,77,0.00,,,0.00,Wunderground v.1.15,2013-03-06 02:28:00,
2013-03-05 21:33:00,35.9,29.4,30.00,NE,40,2.0,3.0,77,0.00,,,0.00,Wunderground v.1.15,2013-03-06 02:33:00,
2013-03-05 21:38:00,36.1,29.6,30.00,NE,40,0.0,3.0,77,0.00,,,0.00,Wunderground v.1.15,2013-03-06 02:38:00,
2013-03-05 21:43:00,36.2,29.7,30.00,NE,40,0.0,1.0,77,0.00,,,0.00,Wunderground v.1.15,2013-03-06 02:43:00,
2013-03-05 21:48:00,36.2,29.7,30.00,NE,40,0.0,1.0,77,0.00,,,0.00,Wunderground v.1.15,2013-03-06 02:48:00,
2013-03-05 21:53:00,36.3,29.8,30.00,NE,40,0.0,0.0,77,0.00,,,0.00,Wunderground v.1.15,2013-03-06 02:53:00,
2013-03-05 21:58:00,36.4,29.9,30.00,NE,40,0.0,0.0,77,0.00,,,0.00,Wunderground v.1.15,2013-03-06 02:58:00,
2013-03-05 22:04:00,36.5,30.0,30.00,NNW,337,2.0,3.0,77,0.00,,,0.00,Wunderground v.1.15,2013-03-06 03:04:00,
2013-03-05 22:09:00,36.5,30.0,30.00,NNW,338,0.0,3.0,77,0.00,,,0.00,Wunderground v.1.15,2013-03-06 03:09:00,
2013-03-05 22:14:00,36.6,30.1,30.00,NNW,338,0.0,1.0,77,0.00,,,0.00,Wunderground v.1.15,2013-03-06 03:14:00,
2013-03-05 22:19:00,36.6,30.1,30.01,NNW,338,0.0,1.0,77,0.00,,,0.00,Wunderground v.1.15,2013-03-06 03:19:00,
2013-03-05 22:24:00,36.6,30.1,30.01,NNW,338,0.0,1.0,77,0.00,,,0.00,Wunderground v.1.15,2013-03-06 03:24:00,
2013-03-05 22:29:00,36.6,30.1,30.01,NNW,337,1.0,1.0,77,0.00,,,0.00,Wunderground v.1.15,2013-03-06 03:29:00,
2013-03-05 22:34:00,36.5,30.0,30.02,NNW,338,2.0,2.0,77,0.00,,,0.00,Wunderground v.1.15,2013-03-06 03:34:00,
2013-03-05 22:39:00,36.5,30.0,30.02,NNW,338,2.0,3.0,77,0.00,,,0.00,Wunderground v.1.15,2013-03-06 03:39:00,
2013-03-05 22:44:00,36.5,30.0,30.02,NNW,345,3.0,6.0,77,0.00,,,0.00,Wunderground v.1.15,2013-03-06 03:44:00,
2013-03-05 22:49:00,36.6,30.1,30.02,NNW,342,4.0,6.0,77,0.00,,,0.00,Wunderground v.1.15,2013-03-06 03:49:00,
2013-03-05 22:54:00,36.7,30.5,30.03,North,355,4.0,6.0,78,0.00,,,0.00,Wunderground v.1.15,2013-03-06 03:54:00,
2013-03-05 22:59:00,36.8,30.6,30.03,NNW,345,2.0,6.0,78,0.00,,,0.00,Wunderground v.1.15,2013-03-06 03:59:00,
2013-03-05 23:04:00,37.0,30.8,30.03,NNW,346,3.0,4.0,78,0.00,,,0.00,Wunderground v.1.15,2013-03-06 04:04:00,
2013-03-05 23:09:00,37.1,30.6,30.03,NNW,340,3.0,5.0,77,0.00,,,0.00,Wunderground v.1.15,2013-03-06 04:09:00,
2013-03-05 23:14:00,37.2,30.7,30.04,NNW,338,5.0,5.0,77,0.00,,,0.00,Wunderground v.1.15,2013-03-06 04:14:00,
2013-03-05 23:19:00,37.3,30.7,30.04,North,355,4.0,5.0,77,0.00,,,0.00,Wunderground v.1.15,2013-03-06 04:19:00,
2013-03-05 23:24:00,37.3,30.7,30.04,North,11,5.0,7.0,77,0.00,,,0.00,Wunderground v.1.15,2013-03-06 04:24:00,
2013-03-05 23:29:00,37.4,30.8,30.03,North,5,4.0,7.0,77,0.00,,,0.00,Wunderground v.1.15,2013-03-06 04:29:00,
2013-03-05 23:34:00,37.4,30.8,30.03,NNE,21,5.0,5.0,77,0.00,,,0.00,Wunderground v.1.15,2013-03-06 04:34:00,
2013-03-05 23:39:00,37.5,30.9,30.03,NNE,28,7.0,8.0,77,0.00,,,0.00,Wunderground v.1.15,2013-03-06 04:39:00,
2013-03-05 23:44:00,37.5,30.9,30.03,NW,326,4.0,9.0,77,0.00,,,0.00,Wunderground v.1.15,2013-03-06 04:44:00,
2013-03-05 23:49:00,37.5,30.9,30.03,North,355,5.0,9.0,77,0.00,,,0.00,Wunderground v.1.15,2013-03-06 04:49:00,
2013-03-05 23:54:00,37.5,31.3,30.03,NNW,348,4.0,6.0,78,0.00,,,0.00,Wunderground v.1.15,2013-03-06 04:54:00,
2013-03-05 23:59:00,37.4,31.2,30.02,NNW,336,4.0,6.0,78,0.00,,,0.00,Wunderground v.1.15,2013-03-06 04:59:00,